STARLINK-5717 (55618 NORAD) Tracking and Keplerian Element Data

This shows tracking and keplerian element data for the satellite.

Feedback or suggestion? Click here.




ElementValue
Catalog55618
NameSTARLINK-5717
Epoch Orbit660
Epoch Day85.25001157
Epoch Year2023
RAAN103.8379
Inclination42.9979
Eccentricity0.0001385
Argument of Perigee268.6275
Mean Anonmoly107.6872
Mean Motion15.48930989
Decay Rate-0.00055502
L11 55618U 23020BB 23085.25001157 -.00055502 00000+0 -10040-2 0 9996
L22 55618 42.9979 103.8379 0001385 268.6275 107.6872 15.48930989 6600



Live tracking and technical data element details for STARLINK-5717 (NORAD 55618). STARLINK-5717 can be tracked NOW for your location showing map with azimuth and elevation plus other details from your city location.







IsCatalogInMostPopularTable: catalog: 55618, numindb: 4
Update: records affected: 1



GetName: 55618 STARLINK-5717

Hit Count: updated at: Tue, 28 Mar 2023 03:27:26 GMT